Location: Unspecified
(43.4680°N, 87.1740°E)
Time: 15:51:33
(UTC+00:00)

ISS - Pass Details

Date: 04 October 2021
Orbit: 417 x 423 km, 51.6° (Epoch: 25 October)

Event Time Altitude Azimuth Distance (km) Brightness Sun altitude
Rises 12:54:30 0° 301° (WNW) 2,366 1.3 -13.0°
Reaches altitude 10° 12:56:36 10° 301° (WNW) 1,500 0.2 -13.4°
Maximum altitude 12:59:58 79° 215° (SW) 431 -3.7 -14.0°
Enters shadow 13:01:49 25° 130° (SE) 898 -2.6 -14.3°
